Simultaneous Nadir Overpasses (SNOs) Predictions

Prediction of SNOs between GOES-16 and LANDSAT-8 Satellite Orbit:

Table of predicted SNOs for the next 14.0 days since TLE Epoch: 10/16/2021
Index Date Time (GOES-16) GOES-16 Lat,Lon LANDSAT-8 Lat,Lon Distance(km) Time Diff (sec)
1 10/17/2021 03:03:56 -0.07, -75.19 0.34, -73.19 227.77 80
2 10/17/2021 15:25:11 0.08, -75.21 0.73, -78.35 356.67 80
3 10/19/2021 15:13:00 0.08, -75.23 0.10, -75.39 18.50 80
4 10/21/2021 15:03:29 0.08, -75.25 -0.54, -72.44 320.44 80
5 10/22/2021 03:24:53 -0.08, -75.25 -0.58, -77.63 270.57 80
6 10/24/2021 03:10:02 -0.08, -75.27 0.06, -74.67 68.75 80
7 10/26/2021 02:57:50 -0.09, -75.30 0.65, -71.71 408.38 80
8 10/26/2021 15:19:06 0.09, -75.32 0.42, -76.87 175.75 80
9 10/28/2021 15:09:35 0.09, -75.36 -0.23, -73.92 164.44 80
10 10/29/2021 03:30:59 -0.09, -75.36 -0.89, -79.10 426.04 80
